When you browse on this site, cookies collect data to enhance your experience and personalize the content and advertising you see.
Visit our Privacy Policy to learn more. By continuing to use the site, you agree to this use of cookies and data.
  • en France
  • Liste des pays
  • À 7 jours
  • Température de l'eau
  • Carte satellitaire
  • Carte météo
  • Widgets météo
  • user-avatar
    Se connecter

    Météo par heure à Shеki

    Ce jour, 20 Avril, Samedi

    Heure Température Précipitation Vent Pression Humidité
    00:00 +6°C° 0.2 mm 2 m/s 736 mmHg 92%
    01:00 +6°C° 0.1 mm 2 m/s 736 mmHg 92%
    02:00 +5°C° 0.1 mm 2 m/s 735 mmHg 91%
    03:00 +6°C° 0.1 mm 1 m/s 735 mmHg 90%
    04:00 +6°C° 0.2 mm 1 m/s 735 mmHg 90%
    05:00 +6°C° 0.2 mm 1 m/s 735 mmHg 89%
    06:00 +6°C° 0.2 mm 1 m/s 735 mmHg 88%
    07:00 +6°C° 0.3 mm 2 m/s 736 mmHg 86%
    08:00 +6°C° 0.3 mm 2 m/s 736 mmHg 84%
    09:00 +7°C° 0.3 mm 2 m/s 736 mmHg 82%
    10:00 +8°C° 0.3 mm 2 m/s 736 mmHg 79%
    11:00 +8°C° 0.3 mm 3 m/s 736 mmHg 77%
    12:00 +9°C° 0.3 mm 3 m/s 736 mmHg 74%
    13:00 +9°C° 0.2 mm 3 m/s 736 mmHg 74%
    14:00 +9°C° 0.2 mm 3 m/s 736 mmHg 74%
    15:00 +10°C° 0.2 mm 3 m/s 736 mmHg 73%
    16:00 +9°C° 0.2 mm 3 m/s 737 mmHg 75%
    17:00 +9°C° 0.2 mm 3 m/s 737 mmHg 77%
    18:00 +8°C° 0.2 mm 3 m/s 737 mmHg 79%
    19:00 +8°C° 0.1 mm 3 m/s 738 mmHg 83%
    20:00 +7°C° 0.1 mm 3 m/s 738 mmHg 87%
    21:00 +5°C° 0.1 mm 3 m/s 738 mmHg 91%
    22:00 +5°C° 0.1 mm 3 m/s 738 mmHg 90%
    23:00 +5°C° 0.1 mm 3 m/s 738 mmHg 89%

    Demain, 21 Avril, Dimanche

    Heure Température Précipitation Vent Pression Humidité
    00:00 +5°C° 0.1 mm 3 m/s 738 mmHg 87%
    01:00 +4°C° 0.1 mm 3 m/s 738 mmHg 88%
    02:00 +5°C° 0.1 mm 2 m/s 738 mmHg 90%
    03:00 +5°C° 0.1 mm 1 m/s 738 mmHg 91%
    04:00 +5°C° 0 mm 1 m/s 738 mmHg 88%
    05:00 +6°C° 0 mm 1 m/s 738 mmHg 86%
    06:00 +6°C° 0 mm 1 m/s 738 mmHg 83%
    07:00 +7°C° 0 mm 1 m/s 738 mmHg 79%
    08:00 +7°C° 0 mm 2 m/s 738 mmHg 76%
    09:00 +9°C° 0 mm 3 m/s 738 mmHg 72%
    10:00 +9°C° 0 mm 3 m/s 738 mmHg 69%
    11:00 +10°C° 0 mm 3 m/s 738 mmHg 66%
    12:00 +11°C° 0 mm 4 m/s 738 mmHg 63%
    13:00 +11°C° 0.1 mm 4 m/s 737 mmHg 63%
    14:00 +12°C° 0.1 mm 4 m/s 737 mmHg 64%
    15:00 +12°C° 0.1 mm 4 m/s 737 mmHg 64%
    16:00 +11°C° 0.1 mm 4 m/s 737 mmHg 67%
    17:00 +11°C° 0.1 mm 3 m/s 737 mmHg 71%
    18:00 +10°C° 0.1 mm 3 m/s 737 mmHg 74%
    19:00 +9°C° 0.1 mm 2 m/s 738 mmHg 78%
    20:00 +8°C° 0.1 mm 2 m/s 738 mmHg 81%
    21:00 +7°C° 0.1 mm 2 m/s 739 mmHg 85%
    22:00 +7°C° 0.1 mm 2 m/s 739 mmHg 86%
    23:00 +7°C° 0.1 mm 2 m/s 738 mmHg 87%

    Après-demain, 22 Avril, Lundi

    Heure Température Précipitation Vent Pression Humidité
    00:00 +6°C° 0.1 mm 2 m/s 738 mmHg 88%
    01:00 +6°C° 0.1 mm 2 m/s 738 mmHg 87%
    02:00 +6°C° 0.1 mm 2 m/s 738 mmHg 87%
    03:00 +6°C° 0.1 mm 1 m/s 738 mmHg 86%
    04:00 +7°C° 0 mm 1 m/s 738 mmHg 84%
    05:00 +7°C° 0 mm 1 m/s 738 mmHg 81%
    06:00 +8°C° 0 mm 1 m/s 738 mmHg 79%
    07:00 +9°C° 0 mm 1 m/s 738 mmHg 75%
    08:00 +9°C° 0 mm 2 m/s 738 mmHg 71%
    09:00 +10°C° 0 mm 2 m/s 738 mmHg 67%
    10:00 +11°C° 0.1 mm 3 m/s 738 mmHg 64%
    11:00 +12°C° 0.1 mm 3 m/s 737 mmHg 62%
    12:00 +13°C° 0.1 mm 3 m/s 737 mmHg 59%
    13:00 +13°C° 0.2 mm 4 m/s 737 mmHg 62%
    14:00 +12°C° 0.2 mm 4 m/s 737 mmHg 64%
    15:00 +12°C° 0.2 mm 4 m/s 736 mmHg 67%
    16:00 +12°C° 0.3 mm 4 m/s 737 mmHg 71%
    17:00 +11°C° 0.3 mm 3 m/s 737 mmHg 75%
    18:00 +10°C° 0.3 mm 2 m/s 737 mmHg 79%
    19:00 +9°C° 0.1 mm 2 m/s 738 mmHg 80%
    20:00 +9°C° 0.1 mm 2 m/s 738 mmHg 81%
    21:00 +9°C° 0.1 mm 1 m/s 739 mmHg 83%
    22:00 +9°C° 0.1 mm 1 m/s 739 mmHg 82%
    23:00 +8°C° 0.1 mm 1 m/s 739 mmHg 81%

    23 Avril, Mardi

    Heure Température Précipitation Vent Pression Humidité
    00:00 +7°C° 0.1 mm 2 m/s 739 mmHg 81%
    01:00 +8°C° 0.1 mm 1 m/s 739 mmHg 79%
    02:00 +8°C° 0.1 mm 1 m/s 739 mmHg 77%
    03:00 +7°C° 0.1 mm 1 m/s 740 mmHg 75%
    04:00 +8°C° 0.1 mm 1 m/s 740 mmHg 74%
    05:00 +8°C° 0.1 mm 1 m/s 740 mmHg 74%
    06:00 +8°C° 0.1 mm 1 m/s 740 mmHg 73%
    07:00 +9°C° 0 mm 1 m/s 741 mmHg 69%
    08:00 +9°C° 0 mm 2 m/s 741 mmHg 65%
    09:00 +12°C° 0 mm 2 m/s 741 mmHg 60%
    10:00 +12°C° 0.1 mm 2 m/s 741 mmHg 60%
    11:00 +13°C° 0.1 mm 2 m/s 741 mmHg 59%
    12:00 +13°C° 0.1 mm 3 m/s 741 mmHg 58%
    13:00 +13°C° 0.3 mm 3 m/s 741 mmHg 59%
    14:00 +13°C° 0.3 mm 4 m/s 741 mmHg 60%
    15:00 +13°C° 0.3 mm 4 m/s 741 mmHg 61%
    16:00 +12°C° 0.2 mm 4 m/s 742 mmHg 65%
    17:00 +11°C° 0.2 mm 4 m/s 742 mmHg 68%
    18:00 +10°C° 0.2 mm 4 m/s 742 mmHg 72%
    19:00 +8°C° 0.1 mm 4 m/s 743 mmHg 73%
    20:00 +9°C° 0.1 mm 3 m/s 743 mmHg 75%
    21:00 +8°C° 0.1 mm 3 m/s 744 mmHg 77%
    22:00 +7°C° 0 mm 3 m/s 744 mmHg 75%
    23:00 +7°C° 0 mm 2 m/s 744 mmHg 73%

    24 Avril, Mercredi

    Heure Température Précipitation Vent Pression Humidité
    00:00 +7°C° 0 mm 2 m/s 744 mmHg 71%
    01:00 +7°C° 0 mm 2 m/s 744 mmHg 68%
    02:00 +6°C° 0 mm 2 m/s 744 mmHg 66%
    03:00 +6°C° 0 mm 2 m/s 744 mmHg 63%
    04:00 +7°C° 0 mm 2 m/s 744 mmHg 61%
    05:00 +8°C° 0 mm 1 m/s 745 mmHg 59%
    06:00 +8°C° 0 mm 1 m/s 745 mmHg 57%
    07:00 +10°C° 0 mm 1 m/s 745 mmHg 55%
    08:00 +11°C° 0 mm 1 m/s 745 mmHg 52%
    09:00 +13°C° 0 mm 1 m/s 745 mmHg 49%
    10:00 +14°C° 0 mm 2 m/s 744 mmHg 48%
    11:00 +14°C° 0 mm 2 m/s 744 mmHg 48%
    12:00 +14°C° 0 mm 3 m/s 743 mmHg 47%
    13:00 +14°C° 0.1 mm 3 m/s 743 mmHg 47%
    14:00 +16°C° 0.1 mm 3 m/s 743 mmHg 48%
    15:00 +16°C° 0.1 mm 3 m/s 743 mmHg 48%
    16:00 +14°C° 0.1 mm 3 m/s 743 mmHg 51%
    17:00 +13°C° 0.1 mm 3 m/s 743 mmHg 55%
    18:00 +13°C° 0.1 mm 3 m/s 743 mmHg 59%
    19:00 +12°C° 0.2 mm 3 m/s 743 mmHg 62%
    20:00 +11°C° 0.2 mm 4 m/s 744 mmHg 66%
    21:00 +10°C° 0.2 mm 4 m/s 744 mmHg 69%
    22:00 +9°C° 0.1 mm 3 m/s 744 mmHg 70%
    23:00 +8°C° 0.1 mm 3 m/s 744 mmHg 70%

    25 Avril, Jeudi

    Heure Température Précipitation Vent Pression Humidité
    00:00 +8°C° 0.1 mm 2 m/s 745 mmHg 71%
    01:00 +7°C° 0 mm 2 m/s 744 mmHg 70%
    02:00 +8°C° 0 mm 1 m/s 744 mmHg 69%
    03:00 +8°C° 0 mm 1 m/s 744 mmHg 69%
    04:00 +8°C° 0 mm 1 m/s 745 mmHg 67%
    05:00 +8°C° 0 mm 1 m/s 745 mmHg 65%
    06:00 +9°C° 0 mm 1 m/s 745 mmHg 64%
    07:00 +10°C° 0 mm 1 m/s 745 mmHg 60%
    08:00 +12°C° 0 mm 1 m/s 745 mmHg 56%
    09:00 +13°C° 0 mm 2 m/s 745 mmHg 51%
    10:00 +14°C° 0 mm 2 m/s 744 mmHg 50%
    11:00 +15°C° 0 mm 2 m/s 744 mmHg 49%
    12:00 +16°C° 0 mm 2 m/s 744 mmHg 48%
    13:00 +16°C° 0.1 mm 2 m/s 743 mmHg 48%
    14:00 +16°C° 0.1 mm 2 m/s 743 mmHg 47%
    15:00 +16°C° 0.1 mm 2 m/s 743 mmHg 47%
    16:00 +16°C° 0.1 mm 2 m/s 743 mmHg 50%
    17:00 +15°C° 0.1 mm 2 m/s 743 mmHg 54%
    18:00 +15°C° 0.1 mm 1 m/s 743 mmHg 57%
    19:00 +14°C° 0.1 mm 2 m/s 743 mmHg 60%
    20:00 +13°C° 0.1 mm 2 m/s 744 mmHg 62%
    21:00 +12°C° 0.1 mm 2 m/s 744 mmHg 65%
    22:00 +10°C° 0.2 mm 2 m/s 744 mmHg 66%
    23:00 +10°C° 0.2 mm 2 m/s 744 mmHg 67%
    Voir plus